Skip Page Navigation
NASA JPL Caltech
NASA Logo - Jet Propulsion Laboratory + View the NASA Portal
+ Center for Near-Earth Object Studies
JPL Home Earth Solar System Stars & Galaxies Technology
JPL Solar System Dynamics
BODIES ORBITS EPHEMERIDES TOOLS PHYSICAL DATA DISCOVERY FAQ SITE MAP
JPL Small-Body Database Browser
Search: [ help ]  
487438 (2014 RO35)
Classification: Main-belt Asteroid          SPK-ID: 2487438
Ephemeris | Orbit Diagram | Orbital Elements | Mission Design | Physical Parameters | Discovery Circumstances ]

[ show orbit diagram ]
Orbital Elements at Epoch 2459000.5 (2020-May-31.0) TDB
Reference: JPL 12 (heliocentric ecliptic J2000)
 Element Value Uncertainty (1-sigma)   Units 
e .04853576691390351 7.7308e-08  
a 2.973979251229095 3.8905e-08 au
q 2.829634887484654 2.4641e-07 au
i 10.16579454528135 8.8215e-06 deg
node 46.4373028674232 6.6485e-05 deg
peri .7085498044085188 0.00015776 deg
M 347.6061256299365 0.00014355 deg
tp 2459064.992604651704
(2020-Aug-03.49260465)
0.00074744 TDB
period 1873.291351951522
5.13
3.6759e-05
1.006e-07
d
yr
n .1921751251480268 3.771e-09 deg/d
Q 3.118323614973535 4.0794e-08 au
  Orbit Determination Parameters
   # obs. used (total)      128  
   data-arc span      9101 days (24.92 yr)  
   first obs. used      1994-11-28  
   last obs. used      2019-10-29  
   planetary ephem.      DE431  
   SB-pert. ephem.      SB431-N16  
   condition code      0  
   norm. resid. RMS      .66674  
   source      ORB  
   producer      Otto Matic  
   solution date      2019-Nov-08 18:45:16  

Additional Information
 Earth MOID = 1.83914 au 
 Jupiter MOID = 2.12097 au 
 T_jup = 3.236 
[ show covariance matrix ]

Ephemeris | Orbit Diagram | Orbital Elements | Mission Design | Physical Parameters | Discovery Circumstances ]

Physical Parameter Table
Parameter Symbol Value Units Sigma Reference Notes
absolute magnitude H 16.0   n/a MPO318095  

487438 (2014 RO35)          Discovered 1994-Nov-28 by Spacewatch at Kitt Peak
Reference: Last Updated: 2017-03-14

Alternate Designations
 2014 RO35 = 1994 WD5 
Ephemeris | Orbit Diagram | Orbital Elements | Mission Design | Physical Parameters | Discovery Circumstances ]
ABOUT SSD CREDITS/AWARDS PRIVACY/COPYRIGHT GLOSSARY LINKS
FirstGov 2020-Jul-04 07:19 UT
(server date/time)  
NASA Home Page
Site Manager:   Ryan S. Park
Webmaster  Alan B. Chamberlin